Regional Weather Roundup
Issued by NWS

Home | Current Version | Previous Version | Text Only | Print | Product List | Glossary Off
Versions: 1 2 3 4 5 6 7 8 9 10 11 12 13 14 15 16 17 18 19 20 21 22 23 24 25 26 27 28 29 30 31 32 33 34 35 36 37 38 39 40 41 42 43 44 45 46 47 48 49 50

000
ASUS45 KTFX 262010
RWRMT
MONTANA REGIONAL WEATHER ROUNDUP
NATIONAL WEATHER SERVICE GREAT FALLS MT
200 PM MDT SUN MAR 26 2017

NOTE: "FAIR" INDICATES FEW OR NO CLOUDS BELOW 12000 FEET WITH NO
SIGNIFICANT WEATHER AND/OR OBSTRUCTIONS TO VISIBILITY.

MTZ001>007-043-262100-
WEST OF THE DIVIDE

CITY           SKY/WX    TMP DP  RH WIND       PRES   REMARKS
KALISPELL      SUNNY     48  20  32 MISG      29.89F
MISSOULA       PTSUNNY   53  29  39 S7        29.89F
BUTTE          SUNNY     47  15  27 VRB5      29.87F
MULLAN PASS    CLOUDY    34  30  85 VRB3      29.85F
ANACONDA         N/A     50  12  22 S14G20    29.87F
DEER LODGE       N/A     52  16  24 SE8G17    29.89F
EUREKA           N/A     48  21  34 S8        29.88F
HAMILTON         N/A     54  21  28 SW3       29.87F
PLAINS           N/A     53  29  40 CALM      29.90F
RONAN            N/A     52  29  41 S9        29.94F
THOMPSON FALLS   N/A     52  29  41 E12       29.92F
$$

MTZ008-052>055-262100-
SOUTHWEST MONTANA

CITY           SKY/WX    TMP DP  RH WIND       PRES   REMARKS
BOZEMAN        SUNNY     52  27  38 SE5       29.89F
DILLON         SUNNY     49  16  26 MISG      29.88F
W YELLOWSTONE  PTSUNNY   37  25  60 SW16G22   29.96F WCI  28
ENNIS          SUNNY     50  23  34 S21G30    29.95S
THREE FORKS      N/A     52  52 100 CALM      29.89F
TWIN BRIDGES     N/A     51  17  26 S8        29.90F
$$

MTZ009-010-012-014-046-048-049-054-262100-
EAST SLOPES AND CENTRAL MONTANA

CITY           SKY/WX    TMP DP  RH WIND       PRES   REMARKS
CUT BANK       SUNNY     49  14  24 SW9G20    29.85F
GREAT FALLS    SUNNY     52  16  24 SW13G28   29.86F
MALMSTROM AFB  SUNNY     52  18  25 SW13G22   29.87F
HELENA         SUNNY     53  26  35 E8        29.87F
AUGUSTA          N/A     48  12  23 SW9       29.85F
BOWMANS CRNR     N/A     48  18  30 S9G18     29.84F
CHOTEAU          N/A     50  10  20 VRB5      29.87F
CONRAD           N/A     50  28  42 SE8       29.90F
FAIRFIELD        N/A     51   1  13 W14G21    29.85F
POWER            N/A     50   7  18 SW9G20    29.86F
RAYNESFORD       N/A     51   9  18 W10G23    29.86F
$$

MTZ011-013-016-021-045-047-050-051-262100-
NORTH CENTRAL MONTANA

CITY           SKY/WX    TMP DP  RH WIND       PRES   REMARKS
HAVRE          SUNNY     53  20  27 SW13      29.89F
LEWISTOWN      SUNNY     51  16  24 MISG      29.87F
N BAR RANCH    CLOUDY    50  18  27 SW9       29.90F
CHINOOK          N/A     52  19  28 SW10      29.90F
DENTON           N/A     52  16  24 W14G20    29.85F
FORT BENTON      N/A     54  18  24 MISG      29.88F
GEYSER           N/A     52  10  18 W15       29.86F
GRASS RANGE    PTSUNNY   52  21  30 CALM      29.84F
STANFORD         N/A     51  11  20 E7        29.86F
WINIFRED         N/A     52  20  29 NW7       29.87F
$$

MTZ017>020-022>027-061-062-262100-
NORTHEAST MONTANA

CITY           SKY/WX    TMP DP  RH WIND       PRES   REMARKS
GLASGOW        PTSUNNY   55  22  27 W10       29.90F
JORDAN           N/A     54  22  28 CALM      29.91F
SIDNEY         SUNNY     63  28  26 W13       29.87F
WOLF POINT     SUNNY     60  23  24 W12       29.89F
MALTA          SUNNY     54  23  30 VRB5G16   29.90F
PLENTYWOOD       N/A     57  25  28 W7        29.87S
POPLAR           N/A     59  25  27 W14       29.88F
SCOBEY           N/A     55  19  24 W14       29.88F
$$

MTZ028>42-056>058-262100-
SOUTHCENTRAL AND SOUTHEAST MONTANA

CITY           SKY/WX    TMP DP  RH WIND       PRES   REMARKS
BAKER          MOSUNNY   58  30  34 NW5       29.91F
BILLINGS       MOSUNNY   54  27  35 VRB7      29.91F
LIVINGSTON     SUNNY     55  24  30 SW14G24   29.86F
MILES CITY     SUNNY     58  33  39 SW6       29.90F
BIG TIMBER     PTSUNNY   54  30  40 SE15      29.90F
EKALAKA          N/A     51  32  48 NW2       29.91F
FORSYTH          N/A     55  27  33 NW6       29.91F
HARLOWTON      PTSUNNY   49  24  38 SE6       29.88F
LAUREL           N/A     55  29  37 SE5       29.90F
$$

REGIONAL REPORTS...DAKOTAS

CITY           SKY/WX    TMP DP  RH WIND       PRES   REMARKS
WILLISTON      PTSUNNY   61  34  36 W12G17    29.86F
MINOT          SUNNY     59  42  53 NE10      29.88F
DICKINSON      SUNNY     59  25  27 CALM      29.87F
BEACH            N/A    N/A N/A N/A MISG        N/A
TIOGA            N/A     59  30  33 SW6       29.88S
WATFORD CITY     N/A     63  27  25 CALM      29.86F
BISMARCK       SUNNY     60  36  40 VRB6      29.91F
GRAND FORKS    PTSUNNY   46  40  79 S5        29.94S
FARGO          CLOUDY    44  38  79 W5        29.96S
BUFFALO SD       N/A     54  37  52 SW6       29.86F
RAPID CITY     LGT RAIN  43  39  86 N15       29.94R
$$

REGIONAL REPORTS...WYOMING/IDAHO/WASHINGTON

CITY           SKY/WX    TMP DP  RH WIND       PRES   REMARKS
GILLETTE       PTSUNNY   49  35  58 E6        29.93F
SHERIDAN       SUNNY     55  26  32 CALM      29.92F
BUFFALO WY     MOSUNNY   52  26  36 NW3       29.94F
CODY           MOSUNNY   51  20  29 SE9       29.91F
YELLOWSTONE LA   N/A     36  16  44 VRB3      29.96F
IDAHO FALLS    MOSUNNY   49  26  41 W16       29.98F
SALMON         CLOUDY    54  19  26 S17G25    29.87F
BOISE          CLOUDY    57  29  34 S17       29.90S
SPOKANE        CLOUDY    48  34  58 E6        29.84F
$$

REGIONAL REPORTS...ALBERTA

CITY           SKY/WX    TMP DP  RH WIND       PRES   REMARKS
EDMONTON       SUNNY     45  32  61 E5        29.82F
CALGARY        MOSUNNY   48  14  25 S10G17    29.80F
MEDICINE HAT   MOSUNNY   54  18  24 SW14G21   29.84F
WATERTON GATE    N/A     45  16  31 SW18G26     N/A
CARDSTON         N/A     50  10  20 S2          N/A
MILK RIVER       N/A     52  14  22 W5          N/A
$$

REGIONAL REPORTS...SASKATCHEWAN

CITY           SKY/WX    TMP DP  RH WIND       PRES   REMARKS
SWIFT CURRENT  SUNNY     52  23  32 W16       29.82F
REGINA         MOSUNNY   55  27  33 SW7       29.84F
SASKATOON      CLOUDY    36  30  80 NE9       29.91S WCI  29
CYPRESS HILLS    N/A     46  14  27 SW13G21     N/A
VAL MARIE        N/A     52  19  28 W18G29      N/A
ROCKGLEN         N/A     50  18  27 W17G24      N/A
ASSINIBOIA       N/A     41  32  70 S5          N/A
$$



USA.gov is the U.S. government's official web portal to all federal, state and local government web resources and services.